    Orbital elements:
    2014 SO142                                               Earth MOID = 0.0203 AU
    Epoch 2014 Dec. 9.0 TT = JDT 2457000.5                  MPC
    M  56.30824              (2000.0)            P               Q
    n   0.45661657     Peri.  115.50702     +0.50587808     +0.86255675
    a   1.6701992      Node   184.91186     -0.82474108     +0.48054675
    e   0.4756897      Incl.    6.11597     -0.25276377     +0.15833721
    P   2.16           H   24.3           G   0.15           U   5
    Residuals in seconds of arc
    140920 703  0.1-  0.1+    140920 C92  0.2-  0.4-    140921 C44  0.2-  0.5+
    140920 703  0.3-  0.2+    140920 C77  0.1+  0.1-    140921 C44  0.2-  0.4-
    140920 703  0.3-  0.2+    140920 C77  0.1+  0.1-    140921 C44  0.3+  0.1+
    140920 703  0.3-  0.1-    140920 C77  0.1+  0.0     140921 C44  0.3+  0.7+
    140920 703  0.8-  0.1+    140920 J16  0.3-  0.2+    140922 H21  0.1+  0.1-
    140920 703  0.2-  0.6+    140920 J16  0.1-  0.5+    140922 H21  0.1+  0.1-
    140920 703  0.1+  0.2+    140920 J16  0.3-  0.2+    140922 H21  0.0   0.1-
    140920 850  0.2-  0.6-    140920 J16  0.2-  0.6+    140922 850  0.1+  0.3-
    140920 850  1.3+  1.0-    140921 850  0.1-  0.0     140922 850  0.2+  0.1-
    140920 850  1.5+  0.3+    140921 850  0.0   0.2-    140922 850  0.0   0.4-
    140920 850  1.5-  0.3+    140921 850  0.3+  0.3-    140922 850  0.2+  0.0
    140920 850  1.0-  1.5-    140921 850  0.1-  0.3+    140922 G96  0.4+  0.2-
    140920 850  0.0   0.3+    140921 850  0.1-  0.2-    140922 G96  0.3+  0.0
    140920 850  0.5+  1.1+    140921 850  0.2+  0.3-    140922 G96  0.4+  0.3+
    140920 850  0.2+  0.2-    140921 850  0.9+  0.7-    140922 G96  0.1+  0.2+
    140920 850  0.7+  0.4-    140921 850  0.0   0.2+    140922 G96  0.2+  0.0
    140920 850  0.7-  1.6+    140921 850  0.4+  0.1-    140922 900  0.5-  0.4-
    140920 300  0.3+  0.9-    140921 J95  0.2-  0.3+    140922 900  0.1+  0.1+
    140920 300  0.3-  1.1+    140921 J95  0.3-  0.5+    140922 900  0.9+  0.1-
    140920 300  0.5-  2.2+    140921 160  0.4-  0.7+    140922 J69  0.1+  0.2-
    140920 300  0.6+  1.4-    140921 160  0.3+  0.2+    140922 J69  0.0   0.6-
    140920 958  0.1+  1.1-    140921 J95  0.2+  0.4+    140922 J69  0.1+  0.6-
    140920 958  0.3+  1.3-    140921 160  0.0   0.0     140922 J95  0.0   0.1+
    140920 C92  0.2+  0.7-    140921 160  0.1+  0.5-    140922 J95  0.3-  0.1-
    140920 958  0.3+  1.0-    140921 I93  0.2+  0.2-    140922 J95  0.2-  0.1-
    140920 958  0.1-  0.9-    140921 I93  0.0   0.1-
    140920 958  0.2+  0.8-    140921 I93  0.0   0.1-
    
    Ephemeris:
    2014 SO142               a,e,i = 1.67, 0.48, 6                   q = 0.8757
    Date    TT    R. A. (2000) Decl.     Delta      r     Elong.  Phase     V
    2014 08 24    13 15 47.8 +15 26 36   0.1700  0.8994    45.2   127.1    25.7
    ...
    2014 09 08    13 41 08.8 +25 48 30   0.06755 0.9586    42.2   135.0    24.6
    ...
    2014 09 16    16 11 02.1 +64 29 52   0.02287 1.0013    78.7   100.1    19.7
    ...
    2014 09 22    00 29 43.7 +22 22 29   0.03615 1.0369   155.6    23.5    18.3
    2014 09 23    00 37 23.5 +17 28 38   0.04193 1.0431   160.0    19.2    18.5
    2014 09 24    00 42 51.4 +13 46 03   0.04800 1.0494   163.2    16.0    18.7
    ...
    2014 09 30    00 57 31.2 +02 52 03   0.08738 1.0881   171.6     7.7    19.7
    ...
    2014 10 08    01 03 10.7 -01 55 37   0.1443  1.1424   172.0     7.0    20.9
    ...
    2014 10 23    01 06 44.4 -04 17 11   0.2646  1.2485   161.3    14.8    22.7
    
    A. U. Tomatic                (C) Copyright 2014 MPC           M.P.E.C. 2014-S49
    

    Read MPEC 2014-S48 Read MPEC 2014-S50


    MPEC number:

    Enter an MPEC number in one of the following forms:

    • 1997-B01 (the full form)
    • J97B01 (the packed version of the full form)
    • B01 (the abbreviated form)